Location: Dannhausen
(51.8650°N, 10.1026°E)
Time: 07:49:03
(UTC+00:00)

CZ-4C R/B - Pass Details

Date: 09 April 2020
Orbit: 637 x 1365 km, 63.4° (Epoch: 01 June)

Event Time Altitude Azimuth Distance (km) Brightness Sun altitude
Rises 20:49:16 0° 313° (NW) 3,708 7.0 -21.9°
Reaches altitude 10° 20:51:41 10° 315° (NW) 2,855 6.1 -22.1°
Maximum altitude 20:58:37 83° 43° (NE) 1,196 2.9 -22.8°
Enters shadow 21:01:51 40° 128° (SE) 1,747 3.3 -23.1°
